Regional Weather Roundup
Issued by NWS

Home | Current Version | Previous Version | Graphics & Text | Print | Product List | Glossary On
Versions: 1 2 3 4 5 6 7 8 9 10 11 12 13 14 15 16 17 18 19 20 21 22 23 24 25 26 27 28 29 30 31 32 33 34 35 36 37 38 39 40 41 42 43 44 45 46 47 48 49 50
000
ASUS45 KSLC 271010
RWRUT

UTAH REGIONAL WEATHER ROUNDUP
NATIONAL WEATHER SERVICE SALT LAKE CITY UT
400 AM MDT SAT MAY 27 2017

UTZ001>011-023>025-271100-

NORTHERN UTAH

CITY           SKY/WX    TMP DP  RH WIND       PRES   REMARKS
BRIGHAM CITY   CLEAR     44  37  77 S3        30.13S
HILL AFB       CLEAR     44  35  68 E7        30.12R
LOGAN          CLEAR     40  36  86 CALM      30.14R
OGDEN          CLEAR     43  34  70 CALM      30.11R
SALT LAKE CITY NOT AVBL
TOOELE VALLEY  CLOUDY    45  39  81 S3        30.14R
WENDOVER       CLEAR     49  37  63 NE5       30.14R
HEBER CITY     CLEAR     37  28  70 NE5       30.10R WCI  34
WEST JORDAN    CLEAR     45  42  90 N8        30.13R

$$

UTZ011>015-024>027-271100-

CENTRAL/NORTHEAST UTAH

CITY           SKY/WX    TMP DP  RH WIND       PRES   REMARKS
PROVO AIRPORT  CLEAR     49  38  65 N6        30.12R
MOAB/CANYONLAN MOCLDY    62  24  23 NW17      29.98R
DELTA          PTCLDY    46  34  61 NW7       30.12R
PRICE          CLOUDY    51  29  42 N7        30.06R
ROOSEVELT      PTCLDY    52  37  58 E9        30.06R
VERNAL         CLOUDY    51  37  58 E5        30.04S

$$

UTZ013>016-019>022-027-271100-

SOUTHERN UTAH

CITY           SKY/WX    TMP DP  RH WIND       PRES   REMARKS
BRYCE CANYON   CLEAR     38  30  73 NW7       30.16R WCI  33
CEDAR CITY     CLEAR     46  32  58 N8        30.11R
MILFORD        MOCLDY    50  34  54 N7        30.10R
ST GEORGE      SUNNY     69  34  27 NE17      29.94R
HANKSVILLE     PTCLDY    59  30  33 NW3       30.05R
BLANDING       CLEAR     53  29  40 N8        30.09R

$$

REGIONAL REPORTS     COLORADO/ARIZONA

CITY           SKY/WX    TMP DP  RH WIND       PRES   REMARKS
CRAIG, CO      CLOUDY    44  38  79 NE3       30.10S
GRAND JUNCTION PTCLDY    52  36  54 CALM      30.01R
RIFLE, CO      CLOUDY    53  37  54 VRB3      30.04R
MONTROSE, CO   CLOUDY    57  32  38 NW9       30.04R
CORTEZ, CO     CLEAR     58  24  27 SW13      30.03R
COLORADO CITY    N/A     45  28  53 SE6       30.05S
PAGE, AZ       CLEAR     66  22  18 W3        29.98R
GRAND CANYON   CLEAR     34  24  67 CALM      30.13S
KINGMAN, AZ    CLEAR     53  23  31 SE8       29.95R
FLAGSTAFF, AZ  CLEAR     44  22  41 W7        30.15S

$$

REGIONAL REPORTS    NEVADA/IDAHO/WYOMING

CITY           SKY/WX    TMP DP  RH WIND       PRES   REMARKS
LAS VEGAS, NV  CLEAR     73  26  17 S9        29.85R
ELY, NY        CLEAR     40  25  55 N6        30.17R
ELKO, NV       CLEAR     40  31  70 E6        30.16R
POCATELLO, ID  PTCLDY    36  36 100 CALM      30.15R
BURLEY, ID     CLEAR     39  36  89 S3        30.13R
FORT BRIDGER,  CLOUDY    39  34  81 W7        30.16S WCI  34
EVANSTON, WY   CLOUDY    37  33  85 N8        30.14S WCI  31
ROCK SPRINGS,  CLOUDY    36  33  89 NE5       30.11R WCI  32
KEMMERER, WY     N/A     34  32  93 NW5       30.14R WCI  30

$$



USA.gov is the U.S. government's official web portal to all federal, state and local government web resources and services.